Tracking 19476 objects as of 18-Jan-2019
HD Live streaming from Space Station
objects crossing your sky now

SOICAL (CYLINDER)

Track SOICAL (CYLINDER) now!
10-day predictions
SOICAL (CYLINDER) is classified as:


NORAD ID: 4166
Int'l Code: 1969-082J
Perigee: 584.4 km
Apogee: 588.7 km
Inclination: 70.0 °
Period: 96.3 minutes
Semi major axis: 6957 km
RCS: 0.2152 m2 (medium)
Launch date: September 30, 1969
Source: United States (US)
Launch site: AIR FORCE WESTERN TEST RANGE (AFWTR)
aabbcc
Your satellite tracking list
Your tracking list is empty




NASA's NSSDC Master Catalog

Two Line Element Set (TLE):
1  4166U 69082J   19017.10152993  .00001552  00000-0  14641-3 0  9992
2  4166  69.9625 222.7797 0003101 221.1056 138.9868 14.95942721574669
Source of the keplerian elements: AFSPC